Location: Newark
(48.0000°N, 67.0000°E)
Time: 05:15:50
(UTC+00:00)

DUCHIFAT 1 - Pass Details

Date: 05 April 2020
Orbit: 586 x 604 km, 97.9° (Epoch: 27 May)

Event Time Altitude Azimuth Distance (km) Brightness Sun altitude
Rises 21:09:54 0° 10° (N) 2,841 ? -31.6°
Reaches altitude 10° 21:12:05 10° 7° (N) 1,932 ? -31.4°
Enters shadow 21:13:59 26° 359° (N) 1,191 ? -31.3°
